logo
Rechercher aéroport 
image banner adimage banner adimage banner ad
image banner ad

O02 - Nervino

Situé à Beckwourth, United States

ICAO - O02, IATA -

Données fournies par Airmate  

Information générale

Coordonnées: N39°49'7" W120°21'10"
Élévation : 4900 feet MSL.
Variation magnétique : 14° East
Voir autres Aéroports à California

Données opérationnelles

Special qualification required
Heure actuelle UTC:
Heure actuelle locale:
Météo à : KRTS - Reno/Stead ( 44 km )
METAR: KRTS 281215Z AUTO 00000KT 10SM CLR 08/M04 A3019 RMK AO2
Voir NOTAMs / SUP AIP / TFR affectant cet aéroport [VIEW]
Fréquences de communication: [VIEW]

Pistes:

Identifiant RWYQFULongueur (ft)Largeur (ft)SurfaceLDA (ft)
0890°465175ASPH
26270°465175ASPH

Coordonnées de l'aéroport

Adresse: Beckwourth United States

Vue satellite de O02